User: anonymous   Login
Location: Remedello Sotto
(45.2500°N, 10.3667°E)
Time: 23:36:10
(UTC+00:00)
Language:

Cosmos 1844 - Orbit

View from above orbital plane
View from above orbital plane
View from above satellite
View from above satellite

Ground track
Ground track

The orbit data is extracted from the following two-line orbital elements,

1 17973U 87041A   23150.02079926  .00000266  00000-0  16390-3 0  9999
2 17973  70.8996  13.8015 0029276 107.0001 253.4333 14.14222585860114
Epoch (UTC): 30 May 2023 00:29:57
Eccentricity: 0.0029276
inclination: 70.8996°
perigee height: 824 km
apogee height: 866 km
right ascension of ascending node: 13.8015°
argument of perigee: 107.0001°
revolutions per day: 14.14222585
mean anomaly at epoch: 253.4333°
orbit number at epoch: 86011

The dashed part of the orbit path shows where the satellite is in the earth's shadow,  

DLR